Погода в Кольчугине

Россия / Владимирская область     56°17′38″N   39°22′33″E
темп.,
°C
ветер,
м/с
пор.,
м/с
влажн.,
%
обл.,
%
осадки,
мм/ч
давл.,
гПа
погр.,
м
17 мая, пн
пн1700:00+12зсз11935 0.0 101410
03:00+12св1192100 0.0 101510
06:00+14всв23885 0.0 101578
09:00+20вюв346789 0.0 1015492
12:00+24в455521 0.0 1015994
15:00+25в475327 0.0 10141241
18:00+24в41068100 0.1 1012540
21:00+18юв3128499 0.3 1012245
18 мая, вт
вт1800:00+15юв31284100 0.0 1013219
03:00+14вюв31383100 0.0 1013241
06:00+16юв3137619 0.0 1012295
09:00+22юв5135565 0.0 1012529
12:00+26вюв51144100 0.0 10121382
15:00+28вюв512395 0.0 10103147
18:00+24юв511515 0.0 1010771
21:00+19юв516685 0.0 1010625
19 мая, ср
ср1900:00+17вюв4167955 0.0 1010459
03:00+15вюв312843 0.0 1010289
06:00+16вюв4127798 0.0 1010353
09:00+22юв513535 0.0 1010830
12:00+26юв614447 0.0 10091762
15:00+26юв71144100 0.0 10091749
18:00+24юв5115524 0.0 1008974
21:00+20вюв4147476 0.1 1009515
20 мая, чт
чт2000:00+18вюв415855 0.4 1009580
03:00+17вюв412833 0.4 1009448
06:00+16вюв412833 0.0 1008449
09:00+21юв59640 0.0 1008881
12:00+22вюв6105937 0.1 10071590
15:00+20ююв6138386 2.4 10061351
18:00+19ююв4774100 0.6 10061138
21:00+15ююв3893100 1.7 1005305
21 мая, пт
пт2100:00+13ююв41196100 0.8 1006419
03:00+12ююв41197100 0.8 1005544
06:00+11ю511908 0.1 1006853
09:00+14ю61266100 0.1 10061167
12:00+14ю61273100 0.2 10061613
15:00+14ю5116778 0.4 10061435
18:00+12ююз61181100 0.9 10071167
21:00+10ююз61181100 0.9 10081027